TimeAKDT,TemperatureF,Dew PointF,Humidity,Sea Level PressureIn,VisibilityMPH,Wind Direction,Wind SpeedMPH,Gust SpeedMPH,PrecipitationIn,Events,Conditions,WindDirDegrees,DateUTC
12:53 AM,25.0,19.0,78,29.67,9.0,SSW,8.1,-,0.00,Snow,Light Snow,200,2013-05-15 08:53:00
1:53 AM,26.1,21.9,84,29.66,7.0,South,10.4,-,0.00,Snow,Light Snow,190,2013-05-15 09:53:00
2:20 AM,24.8,21.2,86,29.65,2.0,SSW,10.4,-,0.00,Snow,Light Snow,200,2013-05-15 10:20:00
2:37 AM,24.8,21.2,86,29.64,7.0,South,10.4,-,0.00,Snow,Light Snow,190,2013-05-15 10:37:00
2:53 AM,25.0,21.9,88,29.65,9.0,South,12.7,-,0.00,,Overcast,180,2013-05-15 10:53:00
3:29 AM,24.8,23.0,93,29.62,2.0,South,15.0,-,0.02,Snow,Light Snow,170,2013-05-15 11:29:00
3:32 AM,24.8,23.0,93,29.63,1.8,South,12.7,-,0.02,Snow,Light Snow,170,2013-05-15 11:32:00
3:38 AM,26.6,24.8,93,29.63,2.0,SSW,12.7,-,0.02,Snow,Light Snow,200,2013-05-15 11:38:00
3:53 AM,26.1,24.1,92,29.62,2.5,SW,16.1,-,0.02,Snow,Light Snow,220,2013-05-15 11:53:00
4:18 AM,24.8,24.8,100,29.62,1.2,SW,9.2,-,0.02,Snow,Light Snow,230,2013-05-15 12:18:00
4:41 AM,26.6,23.0,86,29.61,2.0,SW,9.2,-,0.04,Snow,Light Snow,220,2013-05-15 12:41:00
4:50 AM,26.6,23.0,86,29.61,5.0,SW,8.1,-,0.04,Snow,Light Snow,230,2013-05-15 12:50:00
4:51 AM,26.1,23.0,88,29.61,6.0,SW,9.2,-,0.04,Snow,Light Snow,230,2013-05-15 12:51:00
5:53 AM,26.1,21.9,84,29.60,5.0,SW,12.7,-,0.01,Snow,Light Snow,220,2013-05-15 13:53:00
6:08 AM,26.6,21.2,80,29.59,1.8,SSW,16.1,-,0.00,Snow,Light Snow,210,2013-05-15 14:08:00
6:42 AM,26.6,23.0,86,29.59,2.5,SSW,13.8,-,0.00,Snow,Light Snow,210,2013-05-15 14:42:00
6:53 AM,26.1,23.0,88,29.58,1.8,SW,13.8,-,0.00,Snow,Light Snow,220,2013-05-15 14:53:00
7:12 AM,26.6,24.8,93,29.58,2.5,SW,15.0,-,0.00,Snow,Light Snow,220,2013-05-15 15:12:00
7:51 AM,26.6,24.8,93,29.57,1.0,SSW,13.8,-,0.00,Snow,Light Snow,210,2013-05-15 15:51:00
7:53 AM,27.0,25.0,92,29.58,1.0,SSW,13.8,-,0.00,Snow,Light Snow,210,2013-05-15 15:53:00
8:31 AM,26.6,24.8,93,29.57,2.5,SSW,16.1,-,0.01,Snow,Light Snow,200,2013-05-15 16:31:00
8:39 AM,26.6,24.8,93,29.57,3.0,SSW,17.3,-,0.01,Snow,Light Snow,200,2013-05-15 16:39:00
8:50 AM,26.6,24.8,93,29.55,2.0,SSW,17.3,-,0.01,Snow,Light Snow,200,2013-05-15 16:50:00
8:53 AM,27.0,25.0,92,29.55,1.2,SSW,17.3,-,0.01,Snow,Light Snow,200,2013-05-15 16:53:00
9:06 AM,26.6,24.8,93,29.56,1.2,South,15.0,-,0.00,Snow,Light Snow,190,2013-05-15 17:06:00
9:34 AM,26.6,24.8,93,29.55,1.2,South,13.8,-,0.00,Snow,Light Snow,190,2013-05-15 17:34:00
9:53 AM,27.0,25.0,92,29.55,1.2,South,17.3,-,0.00,Snow,Light Snow,190,2013-05-15 17:53:00
10:12 AM,28.4,26.6,93,29.54,1.8,South,16.1,-,0.00,Snow,Light Snow,190,2013-05-15 18:12:00
10:16 AM,28.4,26.6,93,29.54,1.8,SSW,18.4,25.3,0.00,Snow,Light Snow,200,2013-05-15 18:16:00
10:23 AM,28.4,24.8,86,29.54,3.0,SSW,13.8,25.3,0.00,Snow,Light Snow,210,2013-05-15 18:23:00
10:53 AM,28.0,25.0,88,29.55,3.0,SSW,16.1,-,0.00,Snow,Light Snow,210,2013-05-15 18:53:00
11:45 AM,28.4,24.8,86,29.55,2.0,South,16.1,-,0.00,Snow,Light Snow,190,2013-05-15 19:45:00
11:53 AM,28.0,25.0,88,29.55,1.2,South,17.3,23.0,0.00,Snow,Light Snow,190,2013-05-15 19:53:00
11:55 AM,28.4,24.8,86,29.55,1.0,South,15.0,23.0,0.00,Snow,Light Snow,190,2013-05-15 19:55:00
12:02 PM,26.6,24.8,93,29.54,1.0,South,15.0,-,0.00,Snow,Light Snow,190,2013-05-15 20:02:00
12:06 PM,28.4,24.8,86,29.54,1.2,SSW,18.4,-,0.00,Snow,Light Snow,200,2013-05-15 20:06:00
12:12 PM,28.4,24.8,86,29.54,1.8,SSW,16.1,-,0.00,Snow,Light Snow,210,2013-05-15 20:12:00
12:26 PM,28.4,24.8,86,29.55,3.0,SSW,17.3,-,0.00,Snow,Light Snow,200,2013-05-15 20:26:00
12:53 PM,28.0,25.0,88,29.55,4.0,SSW,19.6,-,0.00,Snow,Light Snow,200,2013-05-15 20:53:00
1:53 PM,28.0,24.1,85,29.54,9.0,SSW,13.8,-,0.01,,Overcast,210,2013-05-15 21:53:00
2:02 PM,28.4,24.8,86,29.54,7.0,SSW,15.0,-,N/A,,Overcast,210,2013-05-15 22:02:00
2:32 PM,28.4,24.8,86,29.54,2.0,South,15.0,-,0.00,Snow,Light Snow,190,2013-05-15 22:32:00
2:34 PM,28.4,26.6,93,29.54,1.0,South,16.1,-,0.00,Snow,Light Snow,180,2013-05-15 22:34:00
2:37 PM,28.4,26.6,93,29.54,0.8,South,16.1,-,0.00,Snow,Light Snow,180,2013-05-15 22:37:00
2:40 PM,28.4,26.6,93,29.54,2.0,South,16.1,-,0.00,Snow,Light Snow,180,2013-05-15 22:40:00
2:53 PM,28.0,25.0,88,29.53,2.0,SSW,16.1,-,0.00,Snow,Light Snow,200,2013-05-15 22:53:00
3:06 PM,28.4,24.8,86,29.53,6.0,SSW,15.0,-,0.00,,Overcast,200,2013-05-15 23:06:00
3:12 PM,28.4,24.8,86,29.53,3.0,South,16.1,-,0.00,Snow,Light Snow,180,2013-05-15 23:12:00
3:17 PM,28.4,24.8,86,29.53,1.8,South,16.1,-,0.00,Snow,Light Snow,190,2013-05-15 23:17:00
3:26 PM,28.4,24.8,86,29.53,2.5,South,16.1,-,0.00,Snow,Light Snow,190,2013-05-15 23:26:00
3:33 PM,28.4,24.8,86,29.53,4.0,South,17.3,-,0.00,,Overcast,190,2013-05-15 23:33:00
3:44 PM,28.4,24.8,86,29.53,4.0,South,18.4,-,0.00,Snow,Light Snow,190,2013-05-15 23:44:00
3:53 PM,28.0,25.0,88,29.52,5.0,South,17.3,-,0.00,Snow,Light Snow,180,2013-05-15 23:53:00
4:53 PM,28.0,25.0,88,29.51,3.0,South,18.4,-,0.00,Snow,Light Snow,170,2013-05-16 00:53:00
5:53 PM,28.0,25.0,88,29.50,5.0,South,18.4,25.3,0.00,Snow,Light Snow,170,2013-05-16 01:53:00
6:24 PM,28.4,24.8,86,29.49,1.0,South,17.3,-,0.00,Snow,Light Snow,180,2013-05-16 02:24:00
6:53 PM,28.0,26.1,92,29.48,1.0,South,18.4,-,0.00,Snow,Light Snow,170,2013-05-16 02:53:00
7:26 PM,28.4,26.6,93,29.46,0.5,South,19.6,-,0.01,Fog-Snow,Snow,170,2013-05-16 03:26:00
7:37 PM,28.4,26.6,93,29.46,1.2,South,18.4,-,0.01,Snow,Light Snow,170,2013-05-16 03:37:00
7:49 PM,28.4,26.6,93,29.45,1.0,South,20.7,27.6,0.01,Snow,Light Snow,170,2013-05-16 03:49:00
7:53 PM,28.0,26.1,92,29.45,1.0,South,19.6,27.6,0.01,Snow,Light Snow,170,2013-05-16 03:53:00
8:19 PM,28.4,26.6,93,29.44,1.5,South,19.6,-,0.00,Snow,Light Snow,170,2013-05-16 04:19:00
8:53 PM,28.0,26.1,92,29.42,1.2,South,20.7,27.6,0.01,Snow,Light Snow,170,2013-05-16 04:53:00
9:53 PM,28.0,27.0,96,29.39,0.5,South,23.0,29.9,0.01,Fog-Snow,Light Snow,170,2013-05-16 05:53:00
10:18 PM,28.4,26.6,93,29.37,1.2,South,21.9,31.1,0.00,Snow,Light Snow,170,2013-05-16 06:18:00
10:53 PM,28.9,27.0,92,29.36,1.0,South,19.6,28.8,0.01,Snow,Light Snow,180,2013-05-16 06:53:00
11:53 PM,30.0,28.0,92,29.34,2.0,SSW,21.9,-,0.00,Snow,Light Snow,200,2013-05-16 07:53:00